Regional Weather Roundup
Issued by NWS

Home | Current Version | Previous Version | Text Only | Print | Product List | Glossary On
Versions: 1 2 3 4 5 6 7 8 9 10 11 12 13 14 15 16 17 18 19 20 21 22 23 24 25 26 27 28 29 30 31 32 33 34 35 36 37 38 39 40 41 42 43 44 45 46 47 48 49 50
000
ASUS44 KLIX 040711
RWRLA
LOUISIANA WEATHER ROUNDUP
NATIONAL WEATHER SERVICE NEW ORLEANS LA
200 AM CDT MON MAY 04 2015

NOTE: "FAIR" INDICATES FEW OR NO CLOUDS BELOW 12,000 FEET WITH NO
      SIGNIFICANT WEATHER AND/OR OBSTRUCTIONS TO VISIBILITY.
      SKY/WX - SKY CONDITION AND SIGNIFICANT WEATHER.
      TMP - AIR TEMPERATURE.    DP   - DEWPOINT TEMPERATURE.
      RH  - RELATIVE HUMIDITY.  PRES - PRESSURE.
      HX  - HEAT INDEX.         WCI  - WIND CHILL INDEX.

*  THESE STATIONS ARE NOT NWS OR FAA STATIONS AND ARE NOT UNDER
   NWS QUALITY CONTROL.

LAZ040-048-061>063-065-066-069-040800-
SOUTHEAST LOUISIANA

CITY           SKY/WX    TMP DP  RH WIND       PRES   REMARKS
N.O. AUDUBON   NOT AVBL
N.O. INTL ARPT PTCLDY    64  56  75 CALM      30.10F
N.O. LAKEFRONT CLEAR     70  61  73 CALM      30.11F
SLIDELL        CLEAR     58  57  97 CALM      30.10F
BATON ROUGE    CLEAR     62  58  86 E3        30.10F
BOOTHVILLE     MOCLDY    70  66  87 CALM      30.10F
BELLE CHASSE   CLEAR     59  57  93 CALM      30.10F
BOGALUSA*        N/A     56  53  88 CALM      30.14F
GALLIANO*      SUNNY     63  61  93 S3        30.10F
NEW ROADS*     FAIR      65  59  80 E5        30.10F
GONZALES*      FAIR      60  60 100 CALM      30.09F
HAMMOND*       CLEAR     61  55  82 CALM      30.13S
HOUMA*         NOT AVBL
PORT FOURCHON* MOSUNNY   73  64  73 E6        30.12F

$$

LAZ041-044-053-054-040800-
SOUTHWEST LOUISIANA

CITY           SKY/WX    TMP DP  RH WIND       PRES   REMARKS
LAKE CHARLES   CLEAR     63  60  90 CALM      30.06F
LAFAYETTE      CLEAR     66  61  84 CALM      30.09S
PATTERSON      CLEAR    N/A N/A N/A E3        30.10S
SALT POINT       N/A     65  61  87 E3        30.07F
NEW IBERIA     CLEAR     65  59  81 SE5       30.09F
CHENAULT AIRPK CLEAR     64  62  94 CALM      30.07S

$$

LAZ027-028-040800-
CENTRAL LOUISIANA

CITY           SKY/WX    TMP DP  RH WIND       PRES   REMARKS
FORT POLK      CLEAR     59  56  90 VRB2      30.07S
ALEXANDRIA INT CLEAR     63  59  87 SE7       30.07S
ALEXANDRIA     MOCLDY    63  60  90 CALM      30.09S

$$

LAZ001-002-040800-
NORTHWEST LOUISIANA

CITY           SKY/WX    TMP DP  RH WIND       PRES   REMARKS
SHREVEPORT     CLEAR     65  57  75 S6        30.05R
BARKSDALE AFB  CLEAR     62  57  86 S5        30.05R
DTN SHREVEPORT CLEAR     66  55  67 S6        30.05R

$$

LAZ014-016-040800-
NORTHEAST LOUISIANA

CITY           SKY/WX    TMP DP  RH WIND       PRES   REMARKS
MONROE         CLEAR     67  59  75 S7        30.08F
TALLULAH       MOCLDY    66  56  70 S9        30.11S

$$




USA.gov is the U.S. government's official web portal to all federal, state and local government web resources and services.